Вернуться в каталог

CZ-6A DEB

АктивенPO
NORAD 61831·DEBRIS·🇨🇳 China

Запущен Aug 6, 2024 с Taiyuan Satellite Launch Center

Loading…

Ближайшие Пролёты (ближайшие 24 часа)

TLE

СвежийSource: Space-Track

Эпоха: Sep 14, 2026, 10:27 UTC

1 61831U 24140ACX 26257.43586622  .00001211  00000-0  62156-3 0  9996
2 61831  88.9829 264.6353 0086220 299.4309  59.8292 14.12944695102540

Отслеживайте CZ-6A DEB в реальном времени с AllMySat

Download on the App Store